Location: Newark
(53.3333°N, 83.7500°E)
Time: 15:59:48
(UTC+00:00)

SR - Visible Passes

Search period start: 12 November 2019 00:00
Search period end: 22 November 2019 00:00
Orbit: 574 x 882 km, 66.7° (Epoch: 11 November)

Date Brightness Start Highest point End Pass type
(mag) Time Alt. Az. Time Alt. Az. Time Alt. Az.
12 Nov ? 11:16:08 10° SSW 11:21:27 70° SE 11:27:13 10° NE visible
12 Nov ? 12:58:53 10° W 13:04:01 38° NNW 13:07:35 20° NNE visible
12 Nov ? 14:43:16 10° WNW 14:47:00 22° NNW 14:47:00 22° NNW visible
13 Nov ? 12:08:41 10° WSW 12:14:02 53° NW 12:19:16 12° NE visible
13 Nov ? 13:52:46 10° WNW 13:57:25 25° NNW 13:58:40 23° N visible
13 Nov ? 15:36:50 10° NW 15:38:04 15° NNW 15:38:04 15° NNW visible
14 Nov ? 11:18:46 10° SW 11:24:12 79° NW 11:30:04 10° NE visible
14 Nov ? 13:02:15 10° W 13:07:11 30° NNW 13:10:19 19° NNE visible
14 Nov ? 14:46:39 10° NW 14:49:44 20° NNW 14:49:44 20° NNW visible
15 Nov ? 12:11:52 10° WSW 12:17:04 39° NNW 12:21:58 13° NNE visible
15 Nov ? 13:56:15 10° WNW 14:00:45 23° N 14:01:23 22° N visible
15 Nov ? 15:39:53 10° NW 15:40:47 14° NNW 15:40:47 14° NNW visible
16 Nov ? 11:21:41 10° WSW 11:27:05 55° NW 11:32:52 10° NE visible
16 Nov ? 13:05:45 10° WNW 13:10:26 25° NNW 13:13:01 19° NNE visible
16 Nov ? 14:49:52 10° NW 14:52:25 19° NNW 14:52:25 19° NNW visible
17 Nov ? 12:15:15 10° W 12:20:13 31° NNW 12:24:38 13° NNE visible
17 Nov ? 13:59:39 10° NW 14:04:02 22° N 14:04:02 22° N visible
17 Nov ? 15:42:47 10° NW 15:43:26 13° NNW 15:43:26 13° NNW visible
18 Nov ? 11:24:52 10° WSW 11:30:07 40° NNW 11:35:40 10° NE visible
18 Nov ? 13:09:14 10° WNW 13:13:46 23° N 13:15:39 20° NNE visible
18 Nov ? 14:52:55 10° NW 14:55:03 19° NNW 14:55:03 19° NNW visible
19 Nov ? 12:18:43 10° WNW 12:23:28 26° NNW 12:27:16 14° NNE visible
19 Nov ? 14:02:53 10° NW 14:06:40 22° N 14:06:40 22° N visible
19 Nov ? 15:45:37 10° NW 15:46:04 12° NW 15:46:04 12° NW visible
20 Nov ? 11:28:14 10° W 11:33:15 32° NNW 11:38:31 10° NE visible
20 Nov ? 13:12:38 10° NW 13:17:08 22° N 13:18:16 21° NNE visible
20 Nov ? 14:55:51 10° NW 14:57:40 18° NNW 14:57:40 18° NNW visible
21 Nov ? 12:22:13 10° WNW 12:26:47 23° N 12:29:53 16° NNE visible
21 Nov ? 14:05:58 10° NW 14:09:17 23° N 14:09:17 23° N visible
21 Nov ? 15:48:23 10° NW 15:48:41 11° NW 15:48:41 11° NW visible
